Crossville, TN

7:29 PM CDT on May 20, 2018 (GMT -0500)
Crossville Memorial-Whitson

Weather History for KCSV - November, 2012

Change the Weather History Date:

Tuesday, November 6, 2012

  Actual Average Record
Temperature  
Mean Temperature 44 °F 51 °F  
Max Temperature 46 °F 61 °F 73 °F (1978)
Min Temperature 41 °F 41 °F 19 °F (1967)
Degree Days  
Heating Degree Days 21    
Month to date heating degree days 108  
Since 1 July heating degree days 474  
Cooling Degree Days 0    
Month to date cooling degree days 0  
Year to date cooling degree days 1156  
Moisture  
Dew Point 40 °F    
Average Humidity 85    
Maximum Humidity 93    
Minimum Humidity 76    
Precipitation  
Precipitation 0.27 in 0.14 in 0.94 in (1995)
Month to date precipitation 0.34 0.84  
Year to date precipitation 40.31 45.88  
Sea Level Pressure  
Sea Level Pressure 29.96 in    
Wind  
Wind Speed 2 mph (SW)    
Max Wind Speed 10 mph    
Max Gust Speed 15 mph    
Visibility 8 miles    
Events Rain    
T = Trace of Precipitation, MM = Missing Value Source: NWS Daily Summary

Daily Weather History Graph

Daily Weather History Graph

Search for Another Location

Airport or City:

Astronomy

Nov. 06, 2012 Rise Set
Actual Time 6:08 AM CST 4:39 PM CST
Civil Twilight 5:41 AM CST 5:06 PM CST
Nautical Twilight 5:10 AM CST 5:36 PM CST
Astronomical Twilight 4:40 AM CST 6:06 PM CST
Moon 11:15 PM CST (11/6) 12:01 PM CST (11/6)
Length of Visible Light 11h 24m
Length of Day
10h 31m
Waning Gibbous, 53% of the Moon is Illuminated
Nov 6
Waning Gibbous
Nov 6
Last Quarter
Nov 13
New
Nov 20
First Quarter
Nov 28
Full

Hourly Weather History & Observations

Time (CST) Temp. Windchill Dew Point Humidity Pressure Visibility Wind Dir Wind Speed Gust Speed Precip Events Conditions
12:53 AM 42.1 °F - 37.0 °F 82% 30.00 in 10.0 mi Calm Calm - 0.01 in   Overcast
1:53 AM 41.0 °F - 37.9 °F 89% 30.00 in 7.0 mi Calm Calm - 0.01 in   Overcast
2:53 AM 41.0 °F - 37.9 °F 89% 29.98 in 6.0 mi Calm Calm - 0.01 in Rain Light Rain
3:53 AM 41.0 °F - 39.0 °F 93% 29.97 in 6.0 mi Calm Calm - 0.00 in   Overcast
4:53 AM 41.0 °F 39.0 °F 39.0 °F 93% 29.98 in 6.0 mi SSE 3.5 mph - 0.01 in   Overcast
5:53 AM 41.0 °F - 39.0 °F 93% 29.99 in 8.0 mi Calm Calm - N/A   Overcast
6:53 AM 42.1 °F - 37.9 °F 85% 30.00 in 9.0 mi Calm Calm - N/A   Overcast
7:53 AM 43.0 °F - 39.0 °F 86% 30.00 in 10.0 mi Calm Calm - N/A   Scattered Clouds
8:53 AM 44.1 °F 40.8 °F 37.9 °F 79% 30.01 in 10.0 mi SE 5.8 mph - N/A   Overcast
9:53 AM 45.0 °F 43.5 °F 39.0 °F 80% 30.01 in 10.0 mi South 3.5 mph - N/A   Overcast
10:53 AM 46.0 °F 44.8 °F 39.0 °F 76% 30.00 in 10.0 mi SE 3.5 mph - N/A   Overcast
11:21 AM 46.4 °F - 39.2 °F 76% 29.99 in 10.0 mi Calm Calm - N/A   Overcast
11:49 AM 46.4 °F 45.2 °F 39.2 °F 76% 29.98 in 10.0 mi Variable 3.5 mph - N/A   Overcast
11:53 AM 46.0 °F 44.8 °F 39.0 °F 76% 29.98 in 10.0 mi Variable 3.5 mph - N/A   Overcast
12:53 PM 46.0 °F - 39.0 °F 76% 29.96 in 7.0 mi Calm Calm - N/A   Overcast
1:19 PM 44.6 °F - 39.2 °F 81% 29.96 in 9.0 mi Calm Calm - 0.00 in   Overcast
1:53 PM 45.0 °F 42.6 °F 39.9 °F 82% 29.96 in 10.0 mi West 4.6 mph - 0.01 in   Overcast
2:10 PM 44.6 °F 43.1 °F 39.2 °F 81% 29.96 in 10.0 mi SW 3.5 mph - N/A   Overcast
2:24 PM 46.4 °F - 39.2 °F 76% 29.96 in 10.0 mi Calm Calm - N/A   Overcast
2:35 PM 44.6 °F 43.1 °F 39.2 °F 81% 29.95 in 10.0 mi Variable 3.5 mph - N/A   Overcast
2:53 PM 45.0 °F - 39.9 °F 82% 29.96 in 10.0 mi Calm Calm - N/A   Overcast
3:51 PM 44.6 °F - 39.2 °F 81% 29.94 in 10.0 mi Calm Calm - N/A   Overcast
3:53 PM 45.0 °F - 39.9 °F 82% 29.94 in 10.0 mi Calm Calm - N/A   Overcast
4:30 PM 44.6 °F - 39.2 °F 81% 29.93 in 10.0 mi Calm Calm - N/A   Overcast
4:53 PM 45.0 °F - 39.9 °F 82% 29.94 in 10.0 mi Calm Calm - N/A   Overcast
5:53 PM 45.0 °F - 41.0 °F 86% 29.95 in 10.0 mi Calm Calm - N/A   Overcast
6:20 PM 44.6 °F - 41.0 °F 87% 29.95 in 10.0 mi Calm Calm - N/A   Overcast
6:44 PM 44.6 °F - 41.0 °F 87% 29.95 in 4.0 mi Calm Calm - N/A   Overcast
6:53 PM 44.1 °F - 42.1 °F 93% 29.96 in 1.8 mi Calm Calm - N/A   Overcast
7:24 PM 44.6 °F - 42.8 °F 93% 29.95 in 2.5 mi Calm Calm - 0.01 in   Overcast
7:33 PM 44.6 °F - 42.8 °F 93% 29.95 in 3.0 mi Calm Calm - 0.01 in   Overcast
7:53 PM 44.1 °F - 42.1 °F 93% 29.95 in 3.0 mi Calm Calm - 0.02 in Rain Light Rain
8:27 PM 44.6 °F - 42.8 °F 93% 29.94 in 4.0 mi Calm Calm - 0.01 in Rain Light Rain
8:35 PM 44.6 °F - 42.8 °F 93% 29.94 in 3.0 mi Calm Calm - 0.02 in Rain Light Rain
8:53 PM 44.1 °F - 42.1 °F 93% 29.95 in 3.0 mi Calm Calm - 0.04 in Rain Light Rain
9:53 PM 44.1 °F 41.5 °F 42.1 °F 93% 29.94 in 4.0 mi West 4.6 mph - 0.11 in Rain Light Rain
10:53 PM 42.1 °F 37.7 °F 39.9 °F 92% 29.93 in 5.0 mi WNW 6.9 mph - 0.04 in Rain Light Rain
11:42 PM 42.8 °F 39.3 °F 39.2 °F 87% 29.91 in 5.0 mi WNW 5.8 mph - 0.01 in   Overcast
11:53 PM 41.0 °F 38.0 °F 39.0 °F 93% 29.92 in 6.0 mi WNW 4.6 mph - 0.01 in   Overcast